Year,Month,Day,Hour,Minute,Value (Times are PST for temperature in C)
2010,07,26,00,00,18.10
2010,07,26,00,01,18.10
2010,07,26,00,02,18.10
2010,07,26,00,03,18.10
2010,07,26,00,04,18.00
2010,07,26,00,05,17.90
2010,07,26,00,06,17.90
2010,07,26,00,07,17.90
2010,07,26,00,08,17.90
2010,07,26,00,09,17.90
2010,07,26,00,10,17.90
2010,07,26,00,11,17.90
2010,07,26,00,12,17.90
2010,07,26,00,13,17.90
2010,07,26,00,14,17.90
2010,07,26,00,15,17.90
2010,07,26,00,16,17.90
2010,07,26,00,17,17.90
2010,07,26,00,18,17.90
2010,07,26,00,19,17.80
2010,07,26,00,20,17.80
2010,07,26,00,21,17.80
2010,07,26,00,22,17.80
2010,07,26,00,23,17.80
2010,07,26,00,24,17.70
2010,07,26,00,25,17.70
2010,07,26,00,26,17.70
2010,07,26,00,27,17.70
2010,07,26,00,28,17.70
2010,07,26,00,29,17.60
2010,07,26,00,30,17.60
2010,07,26,00,31,17.60
2010,07,26,00,32,17.60
2010,07,26,00,33,17.60
2010,07,26,00,34,17.60
2010,07,26,00,35,17.50
2010,07,26,00,36,17.50
2010,07,26,00,37,17.50
2010,07,26,00,38,17.50
2010,07,26,00,39,17.50
2010,07,26,00,40,17.40
2010,07,26,00,41,17.40
2010,07,26,00,42,17.40
2010,07,26,00,43,17.40
2010,07,26,00,44,17.40
2010,07,26,00,45,17.30
2010,07,26,00,46,17.30
2010,07,26,00,47,17.30
2010,07,26,00,48,17.30
2010,07,26,00,49,17.30
2010,07,26,00,50,17.30
2010,07,26,00,51,17.30
2010,07,26,00,52,17.30
2010,07,26,00,53,17.30
2010,07,26,00,54,17.20
2010,07,26,00,55,17.20
2010,07,26,00,56,17.20
2010,07,26,00,57,17.20
2010,07,26,00,58,17.10
2010,07,26,00,59,17.10
2010,07,26,01,00,17.10
2010,07,26,01,01,17.00
2010,07,26,01,02,17.00
2010,07,26,01,03,17.00
2010,07,26,01,04,16.90
2010,07,26,01,05,16.90
2010,07,26,01,06,16.90
2010,07,26,01,07,16.80
2010,07,26,01,08,16.80
2010,07,26,01,09,16.80
2010,07,26,01,10,16.80
2010,07,26,01,11,16.70
2010,07,26,01,12,16.70
2010,07,26,01,13,16.70
2010,07,26,01,14,16.70
2010,07,26,01,15,16.70
2010,07,26,01,16,16.60
2010,07,26,01,17,16.60
2010,07,26,01,18,16.60
2010,07,26,01,19,16.50
2010,07,26,01,20,16.40
2010,07,26,01,21,16.40
2010,07,26,01,22,16.40
2010,07,26,01,23,16.40
2010,07,26,01,24,16.40
2010,07,26,01,25,16.30
2010,07,26,01,26,16.30
2010,07,26,01,27,16.30
2010,07,26,01,28,16.20
2010,07,26,01,29,16.20
2010,07,26,01,30,16.20
2010,07,26,01,31,16.20
2010,07,26,01,32,16.20
2010,07,26,01,33,16.20
2010,07,26,01,34,16.10
2010,07,26,01,35,16.10
2010,07,26,01,36,16.10
2010,07,26,01,37,16.10
2010,07,26,01,38,16.10
2010,07,26,01,39,16.10
2010,07,26,01,40,16.10
2010,07,26,01,41,16.10
2010,07,26,01,42,16.10
2010,07,26,01,43,15.90
2010,07,26,01,44,15.90
2010,07,26,01,45,15.90
2010,07,26,01,46,15.90
2010,07,26,01,47,15.90
2010,07,26,01,48,15.90
2010,07,26,01,49,15.90
2010,07,26,01,50,15.90
2010,07,26,01,51,15.80
2010,07,26,01,52,15.80
2010,07,26,01,53,15.80
2010,07,26,01,54,15.80
2010,07,26,01,55,15.80
2010,07,26,01,56,15.80
2010,07,26,01,57,15.80
2010,07,26,01,58,15.80
2010,07,26,01,59,15.80
2010,07,26,02,00,15.80
2010,07,26,02,01,15.80
2010,07,26,02,02,15.80
2010,07,26,02,03,15.80
2010,07,26,02,04,15.80
2010,07,26,02,05,15.80
2010,07,26,02,06,15.80
2010,07,26,02,07,15.80
2010,07,26,02,08,15.80
2010,07,26,02,09,15.80
2010,07,26,02,10,15.80
2010,07,26,02,11,15.80
2010,07,26,02,12,15.80
2010,07,26,02,13,15.70
2010,07,26,02,14,15.70
2010,07,26,02,15,15.70
2010,07,26,02,16,15.70
2010,07,26,02,17,15.70
2010,07,26,02,18,15.70
2010,07,26,02,19,15.60
2010,07,26,02,20,15.60
2010,07,26,02,21,15.60
2010,07,26,02,22,15.60
2010,07,26,02,23,15.60
2010,07,26,02,24,15.60
2010,07,26,02,25,15.60
2010,07,26,02,26,15.60
2010,07,26,02,27,15.60
2010,07,26,02,28,15.60
2010,07,26,02,29,15.50
2010,07,26,02,30,15.50
2010,07,26,02,31,15.50
2010,07,26,02,32,15.50
2010,07,26,02,33,15.50
2010,07,26,02,34,15.50
2010,07,26,02,35,15.50
2010,07,26,02,36,15.50
2010,07,26,02,37,15.50
2010,07,26,02,38,15.50
2010,07,26,02,39,15.40
2010,07,26,02,40,15.40
2010,07,26,02,41,15.40
2010,07,26,02,42,15.40
2010,07,26,02,43,15.40
2010,07,26,02,44,15.40
2010,07,26,02,45,15.40
2010,07,26,02,46,15.30
2010,07,26,02,47,15.30
2010,07,26,02,48,15.20
2010,07,26,02,49,15.20
2010,07,26,02,50,15.10
2010,07,26,02,51,15.00
2010,07,26,02,52,15.00
2010,07,26,02,53,14.90
2010,07,26,02,54,14.90
2010,07,26,02,55,14.80
2010,07,26,02,56,14.80
2010,07,26,02,57,14.80
2010,07,26,02,58,14.80
2010,07,26,02,59,14.80
2010,07,26,03,00,14.80
2010,07,26,03,01,14.80
2010,07,26,03,02,14.70
2010,07,26,03,03,14.70
2010,07,26,03,04,14.70
2010,07,26,03,05,14.70
2010,07,26,03,06,14.70
2010,07,26,03,07,14.60
2010,07,26,03,08,14.60
2010,07,26,03,09,14.60
2010,07,26,03,10,14.60
2010,07,26,03,11,14.60
2010,07,26,03,12,14.60
2010,07,26,03,13,14.60
2010,07,26,03,14,14.50
2010,07,26,03,15,14.50
2010,07,26,03,16,14.50
2010,07,26,03,17,14.50
2010,07,26,03,18,14.50
2010,07,26,03,19,14.50
2010,07,26,03,20,14.40
2010,07,26,03,21,14.40
2010,07,26,03,22,14.40
2010,07,26,03,23,14.40
2010,07,26,03,24,14.40
2010,07,26,03,25,14.40
2010,07,26,03,26,14.40
2010,07,26,03,27,14.40
2010,07,26,03,28,14.40
2010,07,26,03,29,14.30
2010,07,26,03,30,14.30
2010,07,26,03,31,14.30
2010,07,26,03,32,14.30
2010,07,26,03,33,14.30
2010,07,26,03,34,14.30
2010,07,26,03,35,14.30
2010,07,26,03,36,14.30
2010,07,26,03,37,14.30
2010,07,26,03,38,14.30
2010,07,26,03,39,14.20
2010,07,26,03,40,14.20
2010,07,26,03,41,14.20
2010,07,26,03,42,14.20
2010,07,26,03,43,14.20
2010,07,26,03,44,14.20
2010,07,26,03,45,14.20
2010,07,26,03,46,14.20
2010,07,26,03,47,14.20
2010,07,26,03,48,14.20
2010,07,26,03,49,14.20
2010,07,26,03,50,14.20
2010,07,26,03,51,14.10
2010,07,26,03,52,14.10
2010,07,26,03,53,14.10
2010,07,26,03,54,14.10
2010,07,26,03,55,14.10
2010,07,26,03,56,14.10
2010,07,26,03,57,14.10
2010,07,26,03,58,14.10
2010,07,26,03,59,14.10
2010,07,26,04,00,14.10
2010,07,26,04,01,14.10
2010,07,26,04,02,14.10
2010,07,26,04,03,14.10
2010,07,26,04,04,14.10
2010,07,26,04,05,14.10
2010,07,26,04,06,14.10
2010,07,26,04,07,14.10
2010,07,26,04,08,14.10
2010,07,26,04,09,14.10
2010,07,26,04,10,14.00
2010,07,26,04,11,14.00
2010,07,26,04,12,14.00
2010,07,26,04,13,13.90
2010,07,26,04,14,13.90
2010,07,26,04,15,13.90
2010,07,26,04,16,13.90
2010,07,26,04,17,13.90
2010,07,26,04,18,13.80
2010,07,26,04,19,13.80
2010,07,26,04,20,13.80
2010,07,26,04,21,13.80
2010,07,26,04,22,13.70
2010,07,26,04,23,13.70
2010,07,26,04,24,13.70
2010,07,26,04,25,13.70
2010,07,26,04,26,13.70
2010,07,26,04,27,13.70
2010,07,26,04,28,13.70
2010,07,26,04,29,13.70
2010,07,26,04,30,13.70
2010,07,26,04,31,13.70
2010,07,26,04,32,13.70
2010,07,26,04,33,13.70
2010,07,26,04,34,13.60
2010,07,26,04,35,13.60
2010,07,26,04,36,13.60
2010,07,26,04,37,13.60
2010,07,26,04,38,13.50
2010,07,26,04,39,13.50
2010,07,26,04,40,13.50
2010,07,26,04,41,13.50
2010,07,26,04,42,13.50
2010,07,26,04,43,13.50
2010,07,26,04,44,13.50
2010,07,26,04,45,13.40
2010,07,26,04,46,13.40
2010,07,26,04,47,13.40
2010,07,26,04,48,13.40
2010,07,26,04,49,13.40
2010,07,26,04,50,13.40
2010,07,26,04,51,13.40
2010,07,26,04,52,13.40
2010,07,26,04,53,13.30
2010,07,26,04,54,13.30
2010,07,26,04,55,13.30
2010,07,26,04,56,13.30
2010,07,26,04,57,13.30
2010,07,26,04,58,13.30
2010,07,26,04,59,13.30
2010,07,26,05,00,13.30
2010,07,26,05,01,13.30
2010,07,26,05,02,13.30
2010,07,26,05,03,13.30
2010,07,26,05,04,13.30
2010,07,26,05,05,13.30
2010,07,26,05,06,13.30
2010,07,26,05,07,13.30
2010,07,26,05,08,13.20
2010,07,26,05,09,13.20
2010,07,26,05,10,13.20
2010,07,26,05,11,13.20
2010,07,26,05,12,13.20
2010,07,26,05,13,13.10
2010,07,26,05,14,13.10
2010,07,26,05,15,13.10
2010,07,26,05,16,13.10
2010,07,26,05,17,13.10
2010,07,26,05,18,13.10
2010,07,26,05,19,13.10
2010,07,26,05,20,13.10
2010,07,26,05,21,13.00
2010,07,26,05,22,13.00
2010,07,26,05,23,13.00
2010,07,26,05,24,13.00
2010,07,26,05,25,13.00
2010,07,26,05,26,12.90
2010,07,26,05,27,12.90
2010,07,26,05,28,12.90
2010,07,26,05,29,12.90
2010,07,26,05,30,12.90
2010,07,26,05,31,12.90
2010,07,26,05,32,12.90
2010,07,26,05,33,12.90
2010,07,26,05,34,12.90
2010,07,26,05,35,12.80
2010,07,26,05,36,12.80
2010,07,26,05,37,12.80
2010,07,26,05,38,12.80
2010,07,26,05,39,12.80
2010,07,26,05,40,12.80
2010,07,26,05,41,12.80
2010,07,26,05,42,12.80
2010,07,26,05,43,12.80
2010,07,26,05,44,12.80
2010,07,26,05,45,12.80
2010,07,26,05,46,12.80
2010,07,26,05,47,12.80
2010,07,26,05,48,12.80
2010,07,26,05,49,12.80
2010,07,26,05,50,12.80
2010,07,26,05,51,12.80
2010,07,26,05,52,12.80
2010,07,26,05,53,12.80
2010,07,26,05,54,12.80
2010,07,26,05,55,12.80
2010,07,26,05,56,12.70
2010,07,26,05,57,12.70
2010,07,26,05,58,12.70
2010,07,26,05,59,12.70
2010,07,26,06,00,12.70
2010,07,26,06,01,12.70
2010,07,26,06,02,12.80
2010,07,26,06,03,12.80
2010,07,26,06,04,12.80
2010,07,26,06,05,12.80
2010,07,26,06,06,12.80
2010,07,26,06,07,12.80
2010,07,26,06,08,12.80
2010,07,26,06,09,12.80
2010,07,26,06,10,12.80
2010,07,26,06,11,12.80
2010,07,26,06,12,12.80
2010,07,26,06,13,12.80
2010,07,26,06,14,12.80
2010,07,26,06,15,12.80
2010,07,26,06,16,12.80
2010,07,26,06,17,12.80
2010,07,26,06,18,12.80
2010,07,26,06,19,12.80
2010,07,26,06,20,12.80
2010,07,26,06,21,12.80
2010,07,26,06,22,12.80
2010,07,26,06,23,12.80
2010,07,26,06,24,12.80
2010,07,26,06,25,12.80
2010,07,26,06,26,12.90
2010,07,26,06,27,12.90
2010,07,26,06,28,12.90
2010,07,26,06,29,13.00
2010,07,26,06,30,13.00
2010,07,26,06,31,13.00
2010,07,26,06,32,13.00
2010,07,26,06,33,13.10
2010,07,26,06,34,13.10
2010,07,26,06,35,13.10
2010,07,26,06,36,13.20
2010,07,26,06,37,13.20
2010,07,26,06,38,13.30
2010,07,26,06,39,13.30
2010,07,26,06,40,13.30
2010,07,26,06,41,13.40
2010,07,26,06,42,13.40
2010,07,26,06,43,13.50
2010,07,26,06,44,13.50
2010,07,26,06,45,13.60
2010,07,26,06,46,13.60
2010,07,26,06,47,13.70
2010,07,26,06,48,13.70
2010,07,26,06,49,13.70
2010,07,26,06,50,13.80
2010,07,26,06,51,13.80
2010,07,26,06,52,13.90
2010,07,26,06,53,14.00
2010,07,26,06,54,14.00
2010,07,26,06,55,14.10
2010,07,26,06,56,14.20
2010,07,26,06,57,14.20
2010,07,26,06,58,14.20
2010,07,26,06,59,14.30
2010,07,26,07,00,14.40
2010,07,26,07,01,14.40
2010,07,26,07,02,14.50
2010,07,26,07,03,14.60
2010,07,26,07,04,14.70
2010,07,26,07,05,14.70
2010,07,26,07,06,14.80
2010,07,26,07,07,14.80
2010,07,26,07,08,14.90
2010,07,26,07,09,15.00
2010,07,26,07,10,15.10
2010,07,26,07,11,15.20
2010,07,26,07,12,15.30
2010,07,26,07,13,15.40
2010,07,26,07,14,15.50
2010,07,26,07,15,15.50
2010,07,26,07,16,15.60
2010,07,26,07,17,15.70
2010,07,26,07,18,15.80
2010,07,26,07,19,15.80
2010,07,26,07,20,15.90
2010,07,26,07,21,16.10
2010,07,26,07,22,16.10
2010,07,26,07,23,16.20
2010,07,26,07,24,16.30
2010,07,26,07,25,16.40
2010,07,26,07,26,16.50
2010,07,26,07,27,16.60
2010,07,26,07,28,16.70
2010,07,26,07,29,16.70
2010,07,26,07,30,16.90
2010,07,26,07,31,16.90
2010,07,26,07,32,17.00
2010,07,26,07,33,17.10
2010,07,26,07,34,17.10
2010,07,26,07,35,17.20
2010,07,26,07,36,17.30
2010,07,26,07,37,17.30
2010,07,26,07,38,17.30
2010,07,26,07,39,17.30
2010,07,26,07,40,17.50
2010,07,26,07,41,17.50
2010,07,26,07,42,17.60
2010,07,26,07,43,17.70
2010,07,26,07,44,17.70
2010,07,26,07,45,17.80
2010,07,26,07,46,17.90
2010,07,26,07,47,17.90
2010,07,26,07,48,17.90
2010,07,26,07,49,18.00
2010,07,26,07,50,18.10
2010,07,26,07,51,18.10
2010,07,26,07,52,18.10
2010,07,26,07,53,18.20
2010,07,26,07,54,18.20
2010,07,26,07,55,18.20
2010,07,26,07,56,18.20
2010,07,26,07,57,18.20
2010,07,26,07,58,18.20
2010,07,26,07,59,18.20
2010,07,26,08,00,18.30
2010,07,26,08,01,18.30
2010,07,26,08,02,18.30
2010,07,26,08,03,18.30
2010,07,26,08,04,18.30
2010,07,26,08,05,18.40
2010,07,26,08,06,18.40
2010,07,26,08,07,18.40
2010,07,26,08,08,18.50
2010,07,26,08,09,18.50
2010,07,26,08,10,18.50
2010,07,26,08,11,18.50
2010,07,26,08,12,18.50
2010,07,26,08,13,18.50
2010,07,26,08,14,18.50
2010,07,26,08,15,18.50
2010,07,26,08,16,18.50
2010,07,26,08,17,18.60
2010,07,26,08,18,18.60
2010,07,26,08,19,18.70
2010,07,26,08,20,18.70
2010,07,26,08,21,18.70
2010,07,26,08,22,18.80
2010,07,26,08,23,18.90
2010,07,26,08,24,18.90
2010,07,26,08,25,19.00
2010,07,26,08,26,19.10
2010,07,26,08,27,19.10
2010,07,26,08,28,19.20
2010,07,26,08,29,19.30
2010,07,26,08,30,19.30
2010,07,26,08,31,19.40
2010,07,26,08,32,19.50
2010,07,26,08,33,19.50
2010,07,26,08,34,19.60
2010,07,26,08,35,19.70
2010,07,26,08,36,19.80
2010,07,26,08,37,19.90
2010,07,26,08,38,19.90
2010,07,26,08,39,20.00
2010,07,26,08,40,20.10
2010,07,26,08,41,20.20
2010,07,26,08,42,20.20
2010,07,26,08,43,20.20
2010,07,26,08,44,20.10
2010,07,26,08,45,19.90
2010,07,26,08,46,19.90
2010,07,26,08,47,19.90
2010,07,26,08,48,19.90
2010,07,26,08,49,19.90
2010,07,26,08,50,19.90
2010,07,26,08,51,20.10
2010,07,26,08,52,20.20
2010,07,26,08,53,20.00
2010,07,26,08,54,19.90
2010,07,26,08,55,19.70
2010,07,26,08,56,19.60
2010,07,26,08,57,19.60
2010,07,26,08,58,19.60
2010,07,26,08,59,19.60
2010,07,26,09,00,19.70
2010,07,26,09,01,19.70
2010,07,26,09,02,19.70
2010,07,26,09,03,19.70
2010,07,26,09,04,19.70
2010,07,26,09,05,19.80
2010,07,26,09,06,19.80
2010,07,26,09,07,19.90
2010,07,26,09,08,19.90
2010,07,26,09,09,19.90
2010,07,26,09,10,20.10
2010,07,26,09,11,20.10
2010,07,26,09,12,20.20
2010,07,26,09,13,20.30
2010,07,26,09,14,20.30
2010,07,26,09,15,20.30
2010,07,26,09,16,20.30
2010,07,26,09,17,20.30
2010,07,26,09,18,20.30
2010,07,26,09,19,20.40
2010,07,26,09,20,20.50
2010,07,26,09,21,20.50
2010,07,26,09,22,20.60
2010,07,26,09,23,20.70
2010,07,26,09,24,20.80
2010,07,26,09,25,20.90
2010,07,26,09,26,21.00
2010,07,26,09,27,21.10
2010,07,26,09,28,21.10
2010,07,26,09,29,21.20
2010,07,26,09,30,21.30
2010,07,26,09,31,21.40
2010,07,26,09,32,21.50
2010,07,26,09,33,21.60
2010,07,26,09,34,21.50
2010,07,26,09,35,21.40
2010,07,26,09,36,21.40
2010,07,26,09,37,21.30
2010,07,26,09,38,21.30
2010,07,26,09,39,21.40
2010,07,26,09,40,21.40
2010,07,26,09,41,21.30
2010,07,26,09,42,21.30
2010,07,26,09,43,21.40
2010,07,26,09,44,21.40
2010,07,26,09,45,21.50
2010,07,26,09,46,21.40
2010,07,26,09,47,21.40
2010,07,26,09,48,21.30
2010,07,26,09,49,21.30
2010,07,26,09,50,21.30
2010,07,26,09,51,21.30
2010,07,26,09,52,21.30
2010,07,26,09,53,21.30
2010,07,26,09,54,21.30
2010,07,26,09,55,21.30
2010,07,26,09,56,21.20
2010,07,26,09,57,21.10
2010,07,26,09,58,21.10
2010,07,26,09,59,21.00
2010,07,26,10,00,20.80
2010,07,26,10,01,20.80
2010,07,26,10,02,20.90
2010,07,26,10,03,20.90
2010,07,26,10,04,20.90
2010,07,26,10,05,20.70
2010,07,26,10,06,20.40
2010,07,26,10,07,20.20
2010,07,26,10,08,20.10
2010,07,26,10,09,20.00
2010,07,26,10,10,19.90
2010,07,26,10,11,19.90
2010,07,26,10,12,20.10
2010,07,26,10,13,20.20
2010,07,26,10,14,20.40
2010,07,26,10,15,20.40
2010,07,26,10,16,20.30
2010,07,26,10,17,20.20
2010,07,26,10,18,20.20
2010,07,26,10,19,20.30
2010,07,26,10,20,20.40
2010,07,26,10,21,20.50
2010,07,26,10,22,20.50
2010,07,26,10,23,20.50
2010,07,26,10,24,20.50
2010,07,26,10,25,20.30
2010,07,26,10,26,20.10
2010,07,26,10,27,19.90
2010,07,26,10,28,19.80
2010,07,26,10,29,19.70
2010,07,26,10,30,19.60
2010,07,26,10,31,19.50
2010,07,26,10,32,19.40
2010,07,26,10,33,19.40
2010,07,26,10,34,19.50
2010,07,26,10,35,19.50
2010,07,26,10,36,19.40
2010,07,26,10,37,19.30
2010,07,26,10,38,19.30
2010,07,26,10,39,19.50
2010,07,26,10,40,19.70
2010,07,26,10,41,20.00
2010,07,26,10,42,20.10
2010,07,26,10,43,20.20
2010,07,26,10,44,20.20
2010,07,26,10,45,20.20
2010,07,26,10,46,20.20
2010,07,26,10,47,20.10
2010,07,26,10,48,20.10
2010,07,26,10,49,20.00
2010,07,26,10,50,20.10
2010,07,26,10,51,20.20
2010,07,26,10,52,20.20
2010,07,26,10,53,20.20
2010,07,26,10,54,20.40
2010,07,26,10,55,20.50
2010,07,26,10,56,20.80
2010,07,26,10,57,21.00
2010,07,26,10,58,21.10
2010,07,26,10,59,21.20
2010,07,26,11,00,21.10
2010,07,26,11,01,21.10
2010,07,26,11,02,21.20
2010,07,26,11,03,21.30
2010,07,26,11,04,21.50
2010,07,26,11,05,21.70
2010,07,26,11,06,21.90
2010,07,26,11,07,22.00
2010,07,26,11,08,22.10
2010,07,26,11,09,22.20
2010,07,26,11,10,22.30
2010,07,26,11,11,22.30
2010,07,26,11,12,22.00
2010,07,26,11,13,21.80
2010,07,26,11,14,21.70
2010,07,26,11,15,21.80
2010,07,26,11,16,21.90
2010,07,26,11,17,21.90
2010,07,26,11,18,21.70
2010,07,26,11,19,21.70
2010,07,26,11,20,21.80
2010,07,26,11,21,21.90
2010,07,26,11,22,21.90
2010,07,26,11,23,21.90
2010,07,26,11,24,21.80
2010,07,26,11,25,21.70
2010,07,26,11,26,21.50
2010,07,26,11,27,21.40
2010,07,26,11,28,21.50
2010,07,26,11,29,21.60
2010,07,26,11,30,21.60
2010,07,26,11,31,21.60
2010,07,26,11,32,21.60
2010,07,26,11,33,21.70
2010,07,26,11,34,21.70
2010,07,26,11,35,21.60
2010,07,26,11,36,21.70
2010,07,26,11,37,21.60
2010,07,26,11,38,21.70
2010,07,26,11,39,21.80
2010,07,26,11,40,21.90
2010,07,26,11,41,22.00
2010,07,26,11,42,21.90
2010,07,26,11,43,22.00
2010,07,26,11,44,22.10
2010,07,26,11,45,22.00
2010,07,26,11,46,21.90
2010,07,26,11,47,21.80
2010,07,26,11,48,21.70
2010,07,26,11,49,21.60
2010,07,26,11,50,21.60
2010,07,26,11,51,21.70
2010,07,26,11,52,21.80
2010,07,26,11,53,21.70
2010,07,26,11,54,21.60
2010,07,26,11,55,21.60
2010,07,26,11,56,21.50
2010,07,26,11,57,21.40
2010,07,26,11,58,21.40
2010,07,26,11,59,21.40
2010,07,26,12,00,21.40
2010,07,26,12,01,21.30
2010,07,26,12,02,21.30
2010,07,26,12,03,21.30
2010,07,26,12,04,21.20
2010,07,26,12,05,21.20
2010,07,26,12,06,21.20
2010,07,26,12,07,21.30
2010,07,26,12,08,21.40
2010,07,26,12,09,21.40
2010,07,26,12,10,21.60
2010,07,26,12,11,21.80
2010,07,26,12,12,21.90
2010,07,26,12,13,22.00
2010,07,26,12,14,22.00
2010,07,26,12,15,21.90
2010,07,26,12,16,21.90
2010,07,26,12,17,21.80
2010,07,26,12,18,21.70
2010,07,26,12,19,21.70
2010,07,26,12,20,21.70
2010,07,26,12,21,21.90
2010,07,26,12,22,22.10
2010,07,26,12,23,22.40
2010,07,26,12,24,22.70
2010,07,26,12,25,22.90
2010,07,26,12,26,22.90
2010,07,26,12,27,22.80
2010,07,26,12,28,22.80
2010,07,26,12,29,22.80
2010,07,26,12,30,22.70
2010,07,26,12,31,22.50
2010,07,26,12,32,22.30
2010,07,26,12,33,22.20
2010,07,26,12,34,22.30
2010,07,26,12,35,22.50
2010,07,26,12,36,22.60
2010,07,26,12,37,22.70
2010,07,26,12,38,22.70
2010,07,26,12,39,22.90
2010,07,26,12,40,23.00
2010,07,26,12,41,23.10
2010,07,26,12,42,23.20
2010,07,26,12,43,23.30
2010,07,26,12,44,23.30
2010,07,26,12,45,23.30
2010,07,26,12,46,23.20
2010,07,26,12,47,23.10
2010,07,26,12,48,23.00
2010,07,26,12,49,22.70
2010,07,26,12,50,22.60
2010,07,26,12,51,22.40
2010,07,26,12,52,22.40
2010,07,26,12,53,22.40
2010,07,26,12,54,22.30
2010,07,26,12,55,22.30
2010,07,26,12,56,22.30
2010,07,26,12,57,22.40
2010,07,26,12,58,22.50
2010,07,26,12,59,22.50
2010,07,26,13,00,22.30
2010,07,26,13,01,22.20
2010,07,26,13,02,22.20
2010,07,26,13,03,22.30
2010,07,26,13,04,22.60
2010,07,26,13,05,22.80
2010,07,26,13,06,23.10
2010,07,26,13,07,23.30
2010,07,26,13,08,23.30
2010,07,26,13,09,23.30
2010,07,26,13,10,23.20
2010,07,26,13,11,23.30
2010,07,26,13,12,23.40
2010,07,26,13,13,23.30
2010,07,26,13,14,23.20
2010,07,26,13,15,23.10
2010,07,26,13,16,23.10
2010,07,26,13,17,23.30
2010,07,26,13,18,23.30
2010,07,26,13,19,23.30
2010,07,26,13,20,23.30
2010,07,26,13,21,23.20
2010,07,26,13,22,23.30
2010,07,26,13,23,23.30
2010,07,26,13,24,23.30
2010,07,26,13,25,23.30
2010,07,26,13,26,23.30
2010,07,26,13,27,23.30
2010,07,26,13,28,23.40
2010,07,26,13,29,23.60
2010,07,26,13,30,23.70
2010,07,26,13,31,23.80
2010,07,26,13,32,23.70
2010,07,26,13,33,23.80
2010,07,26,13,34,23.80
2010,07,26,13,35,23.70
2010,07,26,13,36,23.70
2010,07,26,13,37,23.50
2010,07,26,13,38,23.30
2010,07,26,13,39,23.20
2010,07,26,13,40,23.20
2010,07,26,13,41,23.20
2010,07,26,13,42,23.30
2010,07,26,13,43,23.30
2010,07,26,13,44,23.50
2010,07,26,13,45,23.70
2010,07,26,13,46,23.90
2010,07,26,13,47,24.10
2010,07,26,13,48,24.30
2010,07,26,13,49,24.50
2010,07,26,13,50,24.50
2010,07,26,13,51,24.50
2010,07,26,13,52,24.40
2010,07,26,13,53,24.30
2010,07,26,13,54,24.40
2010,07,26,13,55,24.50
2010,07,26,13,56,24.50
2010,07,26,13,57,24.50
2010,07,26,13,58,24.40
2010,07,26,13,59,24.20
2010,07,26,14,00,24.10
2010,07,26,14,01,23.90
2010,07,26,14,02,23.90
2010,07,26,14,03,23.90
2010,07,26,14,04,23.90
2010,07,26,14,05,23.90
2010,07,26,14,06,23.70
2010,07,26,14,07,23.60
2010,07,26,14,08,23.50
2010,07,26,14,09,23.30
2010,07,26,14,10,23.30
2010,07,26,14,11,23.20
2010,07,26,14,12,23.10
2010,07,26,14,13,23.00
2010,07,26,14,14,22.90
2010,07,26,14,15,23.10
2010,07,26,14,16,23.20
2010,07,26,14,17,23.40
2010,07,26,14,18,23.50
2010,07,26,14,19,23.70
2010,07,26,14,20,23.60
2010,07,26,14,21,23.60
2010,07,26,14,22,23.70
2010,07,26,14,23,23.70
2010,07,26,14,24,23.80
2010,07,26,14,25,23.90
2010,07,26,14,26,24.00
2010,07,26,14,27,24.10
2010,07,26,14,28,24.20
2010,07,26,14,29,24.10
2010,07,26,14,30,24.10
2010,07,26,14,31,24.10
2010,07,26,14,32,24.10
2010,07,26,14,33,24.20
2010,07,26,14,34,24.20
2010,07,26,14,35,24.20
2010,07,26,14,36,24.30
2010,07,26,14,37,24.30
2010,07,26,14,38,24.20
2010,07,26,14,39,24.10
2010,07,26,14,40,24.10
2010,07,26,14,41,24.10
2010,07,26,14,42,23.90
2010,07,26,14,43,23.70
2010,07,26,14,44,23.50
2010,07,26,14,45,23.40
2010,07,26,14,46,23.50
2010,07,26,14,47,23.40
2010,07,26,14,48,23.20
2010,07,26,14,49,23.20
2010,07,26,14,50,23.20
2010,07,26,14,51,23.20
2010,07,26,14,52,23.30
2010,07,26,14,53,23.40
2010,07,26,14,54,23.50
2010,07,26,14,55,23.70
2010,07,26,14,56,23.80
2010,07,26,14,57,23.70
2010,07,26,14,58,23.70
2010,07,26,14,59,23.70
2010,07,26,15,00,23.70
2010,07,26,15,01,23.60
2010,07,26,15,02,23.50
2010,07,26,15,03,23.30
2010,07,26,15,04,23.30
2010,07,26,15,05,23.40
2010,07,26,15,06,23.60
2010,07,26,15,07,23.70
2010,07,26,15,08,23.70
2010,07,26,15,09,23.70
2010,07,26,15,10,23.80
2010,07,26,15,11,23.80
2010,07,26,15,12,23.80
2010,07,26,15,13,23.90
2010,07,26,15,14,24.10
2010,07,26,15,15,24.20
2010,07,26,15,16,24.20
2010,07,26,15,17,24.30
2010,07,26,15,18,24.40
2010,07,26,15,19,24.40
2010,07,26,15,20,24.50
2010,07,26,15,21,24.60
2010,07,26,15,22,24.80
2010,07,26,15,23,24.90
2010,07,26,15,24,25.00
2010,07,26,15,25,25.10
2010,07,26,15,26,25.20
2010,07,26,15,27,25.40
2010,07,26,15,28,25.50
2010,07,26,15,29,25.50
2010,07,26,15,30,25.40
2010,07,26,15,31,25.30
2010,07,26,15,32,25.30
2010,07,26,15,33,25.20
2010,07,26,15,34,25.10
2010,07,26,15,35,24.90
2010,07,26,15,36,24.80
2010,07,26,15,37,24.70
2010,07,26,15,38,24.80
2010,07,26,15,39,24.80
2010,07,26,15,40,24.80
2010,07,26,15,41,24.70
2010,07,26,15,42,24.70
2010,07,26,15,43,24.60
2010,07,26,15,44,24.60
2010,07,26,15,45,24.60
2010,07,26,15,46,24.80
2010,07,26,15,47,24.90
2010,07,26,15,48,25.00
2010,07,26,15,49,25.00
2010,07,26,15,50,24.90
2010,07,26,15,51,24.90
2010,07,26,15,52,24.80
2010,07,26,15,53,24.80
2010,07,26,15,54,24.90
2010,07,26,15,55,24.90
2010,07,26,15,56,25.00
2010,07,26,15,57,25.10
2010,07,26,15,58,25.30
2010,07,26,15,59,25.40
2010,07,26,16,00,25.60
2010,07,26,16,01,25.90
2010,07,26,16,02,26.10
2010,07,26,16,03,26.30
2010,07,26,16,04,26.50
2010,07,26,16,05,26.60
2010,07,26,16,06,26.60
2010,07,26,16,07,26.60
2010,07,26,16,08,26.60
2010,07,26,16,09,26.70
2010,07,26,16,10,26.80
2010,07,26,16,11,26.90
2010,07,26,16,12,27.00
2010,07,26,16,13,27.20
2010,07,26,16,14,27.30
2010,07,26,16,15,27.30
2010,07,26,16,16,27.30
2010,07,26,16,17,27.30
2010,07,26,16,18,27.40
2010,07,26,16,19,27.60
2010,07,26,16,20,27.50
2010,07,26,16,21,27.40
2010,07,26,16,22,27.50
2010,07,26,16,23,27.60
2010,07,26,16,24,27.70
2010,07,26,16,25,27.80
2010,07,26,16,26,27.90
2010,07,26,16,27,28.10
2010,07,26,16,28,28.10
2010,07,26,16,29,28.10
2010,07,26,16,30,28.20
2010,07,26,16,31,28.20
2010,07,26,16,32,28.00
2010,07,26,16,33,27.90
2010,07,26,16,34,27.90
2010,07,26,16,35,27.80
2010,07,26,16,36,27.90
2010,07,26,16,37,27.80
2010,07,26,16,38,27.90
2010,07,26,16,39,27.90
2010,07,26,16,40,27.90
2010,07,26,16,41,28.00
2010,07,26,16,42,28.10
2010,07,26,16,43,28.20
2010,07,26,16,44,28.30
2010,07,26,16,45,28.40
2010,07,26,16,46,28.50
2010,07,26,16,47,28.60
2010,07,26,16,48,28.70
2010,07,26,16,49,28.70
2010,07,26,16,50,28.80
2010,07,26,16,51,28.90
2010,07,26,16,52,28.90
2010,07,26,16,53,28.90
2010,07,26,16,54,28.90
2010,07,26,16,55,29.00
2010,07,26,16,56,29.10
2010,07,26,16,57,29.10
2010,07,26,16,58,29.20
2010,07,26,16,59,29.20
2010,07,26,17,00,29.20
2010,07,26,17,01,29.20
2010,07,26,17,02,29.30
2010,07,26,17,03,29.30
2010,07,26,17,04,29.30
2010,07,26,17,05,29.20
2010,07,26,17,06,29.20
2010,07,26,17,07,29.10
2010,07,26,17,08,29.10
2010,07,26,17,09,29.00
2010,07,26,17,10,28.90
2010,07,26,17,11,28.90
2010,07,26,17,12,28.90
2010,07,26,17,13,28.90
2010,07,26,17,14,28.90
2010,07,26,17,15,28.90
2010,07,26,17,16,28.80
2010,07,26,17,17,28.60
2010,07,26,17,18,28.60
2010,07,26,17,19,28.50